This is the latest recevied weather packets stored in our database for station/object NK7E-1. If no packets are shown the sender has not sent any weather packets the latest 10 day(s).
| Time | Temp. | Humidity | Pressure | Rain* | Wind** | Luminosity | Snow |
|---|---|---|---|---|---|---|---|
| 1777427400 | 25.56° C | 13% | 1014.6 hPa | 0 mm | - | - | - |
| 1777426799 | 25.56° C | 13% | 1014.5 hPa | 0 mm | - | - | - |
| 1777426199 | 26.11° C | 13% | 1014.5 hPa | 0 mm | - | - | - |
| 1777425599 | 26.11° C | 13% | 1014.5 hPa | 0 mm | - | - | - |
| 1777425001 | 26.67° C | 13% | 1014.5 hPa | 0 mm | - | - | - |
| 1777424402 | 26.67° C | 12% | 1014.6 hPa | 0 mm | - | - | - |
| 1777423800 | 26.67° C | 12% | 1014.7 hPa | 0 mm | - | - | - |
| 1777423201 | 27.22° C | 12% | 1014.6 hPa | 0 mm | - | - | - |
| 1777422599 | 27.22° C | 12% | 1014.5 hPa | 0 mm | - | - | - |
| 1777422001 | 27.22° C | 12% | 1014.5 hPa | 0 mm | - | - | - |
| 1777421399 | 27.78° C | 11% | 1014.4 hPa | 0 mm | - | - | - |
| 1777420801 | 27.78° C | 10% | 1014.1 hPa | 0 mm | - | - | - |
| 1777420201 | 28.33° C | 10% | 1014.1 hPa | 0 mm | - | - | - |
| 1777419601 | 28.33° C | 9% | 1014.1 hPa | 0 mm | - | - | - |
| 1777419001 | 28.33° C | 10% | 1014 hPa | 0 mm | - | - | - |
| 1777418399 | 28.33° C | 10% | 1014.3 hPa | 0 mm | - | - | - |
| 1777417800 | 28.89° C | 10% | 1014.4 hPa | 0 mm | - | - | - |
| 1777417202 | 28.89° C | 10% | 1014.3 hPa | 0 mm | - | - | - |
| 1777416599 | 30° C | 9% | 1014.4 hPa | 0 mm | - | - | - |
| 1777415999 | 30° C | 9% | 1014.6 hPa | 0 mm | - | - | - |
| 1777415399 | 29.44° C | 9% | 1014.5 hPa | 0 mm | - | - | - |
| 1777414800 | 29.44° C | 9% | 1014.7 hPa | 0 mm | - | - | - |
| 1777414199 | 29.44° C | 9% | 1014.7 hPa | 0 mm | - | - | - |
| 1777413602 | 28.89° C | 9% | 1014.8 hPa | 0 mm | - | - | - |
| 1777413001 | 28.89° C | 9% | 1014.9 hPa | 0 mm | - | - | - |
* Rain latest hour (hover to see other rain measurements)
** Current wind speed in m/s (hover to see current wind gust speed)